This is the latest recevied weather packets stored in our database for station/object K2CCS. If no packets are shown the sender has not sent any weather packets the latest 1 day(s).
| Time | Temp. | Humidity | Pressure | Rain* | Wind** | Luminosity | Snow |
|---|---|---|---|---|---|---|---|
| 1778002699 | 26.11° C | 45% | 1007.5 hPa | 0 mm | 0.89 m/s, 165° | 176 W/m² | - |
| 1778002395 | 26.11° C | 45% | 1007.5 hPa | 0 mm | 0 m/s | 178 W/m² | - |
| 1778002093 | 26.67° C | 43% | 1007.5 hPa | 0 mm | 2.24 m/s, 167° | 199 W/m² | - |
| 1778001790 | 27.78° C | 42% | 1007.7 hPa | 0 mm | 1.79 m/s, 149° | 744 W/m² | - |
| 1778001484 | 27.78° C | 42% | 1007.7 hPa | 0 mm | 2.24 m/s, 154° | 365 W/m² | - |
| 1778001182 | 27.22° C | 42% | 1007.6 hPa | 0 mm | 1.34 m/s, 142° | 713 W/m² | - |
| 1778000878 | 27.22° C | 43% | 1007.7 hPa | 0 mm | 2.24 m/s, 166° | 615 W/m² | - |
| 1778000575 | 27.22° C | 43% | 1007.8 hPa | 0 mm | 0.89 m/s, 136° | 468 W/m² | - |
| 1778000275 | 26.67° C | 44% | 1007.6 hPa | 0 mm | 1.79 m/s, 184° | 705 W/m² | - |
| 1777999972 | 26.67° C | 44% | 1007.9 hPa | 0 mm | 1.79 m/s, 204° | 737 W/m² | - |
| 1777999668 | 26.67° C | 44% | 1008 hPa | 0 mm | 1.79 m/s, 121° | 316 W/m² | - |
| 1777999365 | 26.67° C | 45% | 1008.2 hPa | 0 mm | 0.89 m/s, 173° | 729 W/m² | - |
| 1777999063 | 25.56° C | 46% | 1008.2 hPa | 0 mm | 0.89 m/s, 177° | 725 W/m² | - |
| 1777998761 | 25.56° C | 47% | 1008.3 hPa | 0 mm | 1.79 m/s, 176° | 698 W/m² | - |
| 1777998458 | 25.56° C | 46% | 1008.5 hPa | 0 mm | 1.79 m/s, 194° | 712 W/m² | - |
| 1777998155 | 25° C | 47% | 1008.5 hPa | 0 mm | 1.79 m/s, 97° | 691 W/m² | - |
| 1777997852 | 25° C | 48% | 1008.6 hPa | 0 mm | 0.45 m/s, 143° | 689 W/m² | - |
| 1777997550 | 25° C | 48% | 1008.6 hPa | 0 mm | 0.45 m/s, 145° | 701 W/m² | - |
| 1777997247 | 25° C | 47% | 1009.1 hPa | 0 mm | 1.79 m/s, 131° | 688 W/m² | - |
| 1777996945 | 25° C | 47% | 1009.1 hPa | 0 mm | 2.68 m/s, 122° | 720 W/m² | - |
| 1777996641 | 24.44° C | 48% | 1009.2 hPa | 0 mm | 1.34 m/s, 196° | 725 W/m² | - |
| 1777996337 | 24.44° C | 50% | 1009.2 hPa | 0 mm | 1.79 m/s, 183° | 714 W/m² | - |
| 1777996033 | 23.89° C | 49% | 1009.2 hPa | 0 mm | 1.79 m/s, 233° | 734 W/m² | - |
| 1777995730 | 23.33° C | 51% | 1009.3 hPa | 0 mm | 0.89 m/s, 149° | 727 W/m² | - |
| 1777995426 | 23.33° C | 51% | 1009.6 hPa | 0 mm | 1.34 m/s, 123° | 716 W/m² | - |
* Rain latest hour (hover to see other rain measurements)
** Current wind speed in m/s (hover to see current wind gust speed)